Time,TemperatureF,DewpointF,PressureIn,WindDirection,WindDirectionDegrees,WindSpeedMPH,WindSpeedGustMPH,Humidity,HourlyPrecipIn,Conditions,Clouds,dailyrainin,SoftwareType,DateUTC
2013-02-11 00:02:00,40.0,34.0,29.52,SW,232,7.0,15.0,80,0.00,,,0.06,,2013-02-11 06:02:00,
2013-02-11 00:11:00,40.0,34.0,29.52,SW,232,7.0,15.0,80,0.00,,,0.06,,2013-02-11 06:11:00,
2013-02-11 00:21:00,40.0,34.0,29.52,SW,225,7.0,22.0,79,0.00,,,0.06,,2013-02-11 06:21:00,
2013-02-11 00:32:00,39.0,33.0,29.53,WSW,238,7.0,17.0,79,0.00,,,0.06,,2013-02-11 06:32:00,
2013-02-11 00:42:00,39.0,33.0,29.53,West,279,8.0,19.0,80,0.00,,,0.06,,2013-02-11 06:42:00,
2013-02-11 00:51:00,39.0,33.0,29.53,West,279,8.0,19.0,80,0.00,,,0.06,,2013-02-11 06:51:00,
2013-02-11 01:01:00,38.0,32.0,29.54,WSW,244,9.0,22.0,80,0.00,,,0.06,,2013-02-11 07:01:00,
2013-02-11 01:11:00,38.0,33.0,29.54,SW,236,9.0,21.0,82,0.00,,,0.06,,2013-02-11 07:11:00,
2013-02-11 01:21:00,38.0,33.0,29.54,SW,236,9.0,21.0,82,0.00,,,0.06,,2013-02-11 07:21:00,
2013-02-11 01:32:00,37.0,32.0,29.54,SW,223,10.0,20.0,82,0.00,,,0.06,,2013-02-11 07:32:00,
2013-02-11 01:41:00,37.0,32.0,29.54,SW,223,10.0,20.0,82,0.00,,,0.06,,2013-02-11 07:41:00,
2013-02-11 01:52:00,37.0,32.0,29.55,WSW,238,13.0,25.0,82,0.00,,,0.06,,2013-02-11 07:52:00,
2013-02-11 02:01:00,36.0,31.0,29.55,WSW,249,9.0,22.0,83,0.00,,,0.06,,2013-02-11 08:01:00,
2013-02-11 02:11:00,36.0,31.0,29.55,WSW,249,9.0,22.0,83,0.00,,,0.06,,2013-02-11 08:11:00,
2013-02-11 02:21:00,36.0,32.0,29.56,SW,232,8.0,19.0,85,0.00,,,0.06,,2013-02-11 08:21:00,
2013-02-11 02:32:00,35.0,31.0,29.57,WSW,242,9.0,20.0,85,0.00,,,0.06,,2013-02-11 08:32:00,
2013-02-11 02:42:00,35.0,31.0,29.57,West,267,9.0,17.0,86,0.00,,,0.06,,2013-02-11 08:42:00,
2013-02-11 02:52:00,35.0,31.0,29.57,West,267,9.0,17.0,86,0.00,,,0.06,,2013-02-11 08:52:00,
2013-02-11 03:01:00,35.0,30.0,29.57,WNW,285,12.0,21.0,82,0.00,,,0.06,,2013-02-11 09:01:00,
2013-02-11 03:12:00,35.0,30.0,29.57,WNW,285,12.0,21.0,82,0.00,,,0.06,,2013-02-11 09:12:00,
2013-02-11 03:21:00,34.0,29.0,29.57,WSW,252,13.0,25.0,82,0.00,,,0.06,,2013-02-11 09:21:00,
2013-02-11 03:32:00,34.0,28.0,29.57,West,266,12.0,20.0,80,0.00,,,0.06,,2013-02-11 09:32:00,
2013-02-11 03:41:00,34.0,28.0,29.57,West,266,12.0,20.0,80,0.00,,,0.06,,2013-02-11 09:41:00,
2013-02-11 03:51:00,34.0,29.0,29.57,West,261,10.0,20.0,81,0.00,,,0.06,,2013-02-11 09:51:00,
2013-02-11 04:01:00,34.0,28.0,29.58,SW,219,14.0,27.0,78,0.00,,,0.06,,2013-02-11 10:01:00,
2013-02-11 04:11:00,34.0,28.0,29.58,SW,219,14.0,27.0,78,0.00,,,0.06,,2013-02-11 10:11:00,
2013-02-11 04:21:00,33.0,27.0,29.58,SSW,192,8.0,22.0,79,0.00,,,0.06,,2013-02-11 10:21:00,
2013-02-11 04:31:00,33.0,28.0,29.59,SW,218,11.0,19.0,80,0.00,,,0.06,,2013-02-11 10:31:00,
2013-02-11 04:42:00,33.0,28.0,29.59,SW,218,11.0,19.0,80,0.00,,,0.06,,2013-02-11 10:42:00,
2013-02-11 04:51:00,33.0,28.0,29.60,West,263,9.0,24.0,80,0.00,,,0.06,,2013-02-11 10:51:00,
2013-02-11 05:01:00,33.0,27.0,29.60,WSW,244,12.0,26.0,78,0.00,,,0.06,,2013-02-11 11:01:00,
2013-02-11 05:11:00,33.0,27.0,29.60,WSW,244,12.0,26.0,78,0.00,,,0.06,,2013-02-11 11:11:00,
2013-02-11 05:22:00,33.0,27.0,29.61,West,261,10.0,21.0,78,0.00,,,0.06,,2013-02-11 11:22:00,
2013-02-11 05:32:00,33.0,27.0,29.62,West,267,9.0,19.0,79,0.00,,,0.06,,2013-02-11 11:32:00,
2013-02-11 05:42:00,33.0,27.0,29.62,West,267,9.0,19.0,79,0.00,,,0.06,,2013-02-11 11:42:00,
2013-02-11 05:52:00,32.0,26.0,29.62,West,271,10.0,22.0,78,0.00,,,0.06,,2013-02-11 11:52:00,
2013-02-11 06:03:00,32.0,26.0,29.62,WNW,290,13.0,23.0,77,0.00,,,0.06,,2013-02-11 12:03:00,
2013-02-11 06:12:00,32.0,26.0,29.62,WNW,290,13.0,23.0,77,0.00,,,0.06,,2013-02-11 12:12:00,
2013-02-11 06:22:00,32.0,26.0,29.62,West,260,13.0,23.0,79,0.00,,,0.06,,2013-02-11 12:22:00,
2013-02-11 06:32:00,32.0,26.0,29.62,WNW,288,13.0,23.0,79,0.00,,,0.06,,2013-02-11 12:32:00,
2013-02-11 08:52:00,32.0,27.0,29.69,West,261,14.0,22.0,80,0.00,,,0.06,,2013-02-11 14:52:00,
2013-02-11 09:02:00,32.0,27.0,29.70,WNW,286,12.0,20.0,81,0.00,,,0.06,,2013-02-11 15:02:00,
2013-02-11 09:11:00,32.0,27.0,29.70,WNW,286,12.0,20.0,81,0.00,,,0.06,,2013-02-11 15:11:00,
2013-02-11 09:22:00,32.0,27.0,29.70,West,279,14.0,25.0,80,0.00,,,0.06,,2013-02-11 15:22:00,
2013-02-11 09:32:00,32.0,26.0,29.71,West,263,13.0,26.0,79,0.00,,,0.06,,2013-02-11 15:32:00,
2013-02-11 09:42:00,32.0,26.0,29.72,WNW,287,12.0,27.0,79,0.00,,,0.06,,2013-02-11 15:42:00,
2013-02-11 09:52:00,32.0,26.0,29.72,WNW,287,12.0,27.0,79,0.00,,,0.06,,2013-02-11 15:52:00,
2013-02-11 10:02:00,32.0,26.0,29.73,West,273,16.0,24.0,79,0.00,,,0.06,,2013-02-11 16:02:00,
2013-02-11 10:12:00,32.0,26.0,29.73,West,273,16.0,24.0,79,0.00,,,0.06,,2013-02-11 16:12:00,
2013-02-11 10:22:00,32.0,26.0,29.74,West,267,12.0,29.0,79,0.00,,,0.06,,2013-02-11 16:22:00,
2013-02-11 10:32:00,32.0,26.0,29.74,WSW,243,13.0,26.0,79,0.00,,,0.06,,2013-02-11 16:32:00,
2013-02-11 10:42:00,32.0,27.0,29.75,West,275,13.0,22.0,80,0.00,,,0.06,,2013-02-11 16:42:00,
2013-02-11 10:52:00,32.0,27.0,29.75,West,275,13.0,22.0,80,0.00,,,0.06,,2013-02-11 16:52:00,
2013-02-11 11:02:00,32.0,27.0,29.76,West,259,12.0,25.0,80,0.00,,,0.06,,2013-02-11 17:02:00,
2013-02-11 11:11:00,32.0,27.0,29.76,West,259,12.0,25.0,80,0.00,,,0.06,,2013-02-11 17:11:00,
2013-02-11 11:22:00,32.0,26.0,29.77,West,261,14.0,25.0,78,0.00,,,0.06,,2013-02-11 17:22:00,
2013-02-11 11:32:00,32.0,27.0,29.78,West,273,16.0,24.0,80,0.00,,,0.05,,2013-02-11 17:32:00,
2013-02-11 11:42:00,32.0,27.0,29.78,West,273,16.0,24.0,80,0.00,,,0.05,,2013-02-11 17:42:00,
2013-02-11 11:52:00,31.0,25.0,29.78,SW,214,14.0,29.0,77,0.00,,,0.05,,2013-02-11 17:52:00,
2013-02-11 12:02:00,31.0,25.0,29.79,WSW,257,14.0,28.0,77,0.00,,,0.05,,2013-02-11 18:02:00,
2013-02-11 12:11:00,31.0,25.0,29.79,WSW,257,14.0,28.0,77,0.00,,,0.05,,2013-02-11 18:11:00,
2013-02-11 12:21:00,31.0,25.0,29.80,West,269,12.0,28.0,78,0.00,,,0.05,,2013-02-11 18:21:00,
2013-02-11 12:32:00,31.0,25.0,29.80,West,263,9.0,24.0,78,0.00,,,0.05,,2013-02-11 18:32:00,
2013-02-11 12:42:00,31.0,25.0,29.80,West,263,9.0,24.0,78,0.00,,,0.05,,2013-02-11 18:42:00,
2013-02-11 12:52:00,31.0,25.0,29.80,West,263,9.0,24.0,78,0.00,,,0.05,,2013-02-11 18:52:00,
2013-02-11 13:02:00,31.0,25.0,29.82,NW,323,12.0,23.0,78,0.00,,,0.05,,2013-02-11 19:02:00,
2013-02-11 13:11:00,31.0,25.0,29.82,NW,323,12.0,23.0,78,0.00,,,0.05,,2013-02-11 19:11:00,
2013-02-11 13:21:00,31.0,25.0,29.82,WNW,284,9.0,28.0,77,0.00,,,0.05,,2013-02-11 19:21:00,
2013-02-11 13:32:00,31.0,25.0,29.82,WNW,284,9.0,28.0,77,0.00,,,0.05,,2013-02-11 19:32:00,
2013-02-11 13:42:00,31.0,25.0,29.82,WNW,284,9.0,28.0,77,0.00,,,0.05,,2013-02-11 19:42:00,
2013-02-11 13:51:00,31.0,25.0,29.84,WNW,301,9.0,20.0,79,0.00,,,0.05,,2013-02-11 19:51:00,
2013-02-11 14:01:00,31.0,25.0,29.85,WNW,294,8.0,19.0,79,0.00,,,0.05,,2013-02-11 20:01:00,
2013-02-11 14:11:00,31.0,25.0,29.85,WSW,257,12.0,22.0,79,0.00,,,0.05,,2013-02-11 20:11:00,
2013-02-11 14:21:00,31.0,25.0,29.85,WSW,257,12.0,22.0,79,0.00,,,0.05,,2013-02-11 20:21:00,
2013-02-11 14:32:00,31.0,25.0,29.85,West,260,12.0,19.0,77,0.00,,,0.05,,2013-02-11 20:32:00,
2013-02-11 14:42:00,31.0,24.0,29.86,WSW,246,8.0,20.0,76,0.00,,,0.05,,2013-02-11 20:42:00,
2013-02-11 14:52:00,31.0,24.0,29.86,WSW,246,8.0,20.0,76,0.00,,,0.05,,2013-02-11 20:52:00,
2013-02-11 15:02:00,30.0,24.0,29.87,West,263,12.0,21.0,78,0.00,,,0.05,,2013-02-11 21:02:00,
2013-02-11 15:11:00,31.0,25.0,29.87,WNW,298,10.0,22.0,77,0.00,,,0.05,,2013-02-11 21:11:00,
2013-02-11 15:22:00,31.0,25.0,29.87,WNW,298,10.0,22.0,77,0.00,,,0.05,,2013-02-11 21:22:00,
2013-02-11 15:32:00,30.0,23.0,29.88,NW,326,10.0,20.0,76,0.00,,,0.05,,2013-02-11 21:32:00,
2013-02-11 15:42:00,30.0,23.0,29.88,NW,326,10.0,20.0,76,0.00,,,0.05,,2013-02-11 21:42:00,
2013-02-11 15:52:00,30.0,24.0,29.90,West,273,6.0,21.0,78,0.00,,,0.05,,2013-02-11 21:52:00,
2013-02-11 16:02:00,30.0,24.0,29.90,SW,229,12.0,20.0,77,0.00,,,0.05,,2013-02-11 22:02:00,
2013-02-11 16:11:00,30.0,24.0,29.90,SW,229,12.0,20.0,77,0.00,,,0.05,,2013-02-11 22:11:00,
2013-02-11 16:22:00,30.0,23.0,29.91,West,275,11.0,24.0,75,0.00,,,0.05,,2013-02-11 22:22:00,
2013-02-11 16:32:00,30.0,24.0,29.91,WSW,252,7.0,18.0,77,0.00,,,0.01,,2013-02-11 22:32:00,
2013-02-11 16:42:00,30.0,24.0,29.91,WSW,252,7.0,18.0,77,0.00,,,0.01,,2013-02-11 22:42:00,
2013-02-11 16:52:00,30.0,24.0,29.91,WSW,247,7.0,19.0,79,0.00,,,0.01,,2013-02-11 22:52:00,
2013-02-11 17:02:00,30.0,24.0,29.93,WSW,254,8.0,18.0,79,0.00,,,0.01,,2013-02-11 23:02:00,
2013-02-11 17:11:00,30.0,24.0,29.93,WSW,254,8.0,18.0,79,0.00,,,0.01,,2013-02-11 23:11:00,
2013-02-11 17:21:00,30.0,24.0,29.93,WSW,253,10.0,21.0,78,0.00,,,0.01,,2013-02-11 23:21:00,
2013-02-11 17:32:00,30.0,24.0,29.94,WSW,250,10.0,20.0,78,0.00,,,0.00,,2013-02-11 23:32:00,
2013-02-11 17:42:00,30.0,24.0,29.94,WSW,250,10.0,20.0,78,0.00,,,0.00,,2013-02-11 23:42:00,
2013-02-11 17:52:00,30.0,24.0,29.95,WSW,257,10.0,23.0,77,0.00,,,0.00,,2013-02-11 23:52:00,
2013-02-11 18:02:00,30.0,24.0,29.96,West,267,10.0,19.0,78,0.00,,,0.00,,2013-02-12 00:02:00,
2013-02-11 18:11:00,30.0,24.0,29.96,West,267,10.0,19.0,78,0.00,,,0.00,,2013-02-12 00:11:00,
2013-02-11 18:22:00,29.0,23.0,29.97,West,281,8.0,19.0,79,0.00,,,0.00,,2013-02-12 00:22:00,
2013-02-11 18:32:00,29.0,23.0,29.98,WNW,283,8.0,18.0,79,0.00,,,0.00,,2013-02-12 00:32:00,
2013-02-11 18:42:00,29.0,23.0,29.98,WNW,283,8.0,18.0,79,0.00,,,0.00,,2013-02-12 00:42:00,
2013-02-11 18:52:00,29.0,23.0,29.98,West,264,8.0,20.0,78,0.00,,,0.00,,2013-02-12 00:52:00,
2013-02-11 19:02:00,29.0,24.0,29.99,NW,305,7.0,18.0,80,0.00,,,0.00,,2013-02-12 01:02:00,
2013-02-11 19:11:00,29.0,24.0,29.99,NW,305,7.0,18.0,80,0.00,,,0.00,,2013-02-12 01:11:00,
2013-02-11 19:21:00,29.0,24.0,30.00,West,275,8.0,14.0,80,0.00,,,0.00,,2013-02-12 01:21:00,
2013-02-11 19:32:00,29.0,23.0,30.00,WNW,300,6.0,17.0,79,0.00,,,0.00,,2013-02-12 01:32:00,
2013-02-11 19:42:00,29.0,23.0,30.00,WNW,300,6.0,17.0,79,0.00,,,0.00,,2013-02-12 01:42:00,
2013-02-11 19:51:00,29.0,24.0,30.00,NW,309,5.0,12.0,80,0.00,,,0.00,,2013-02-12 01:51:00,
2013-02-11 20:01:00,29.0,24.0,30.01,WNW,302,3.0,11.0,80,0.00,,,0.00,,2013-02-12 02:01:00,
2013-02-11 20:12:00,29.0,24.0,30.01,WNW,302,3.0,11.0,80,0.00,,,0.00,,2013-02-12 02:12:00,
2013-02-11 20:21:00,29.0,24.0,30.01,WSW,252,9.0,18.0,80,0.00,,,0.00,,2013-02-12 02:21:00,
2013-02-11 20:32:00,29.0,23.0,30.01,WNW,296,5.0,15.0,79,0.00,,,0.00,,2013-02-12 02:32:00,
2013-02-11 20:42:00,29.0,23.0,30.01,WNW,296,5.0,15.0,79,0.00,,,0.00,,2013-02-12 02:42:00,
2013-02-11 20:52:00,29.0,23.0,30.01,NNW,339,6.0,16.0,79,0.00,,,0.00,,2013-02-12 02:52:00,
2013-02-11 21:02:00,28.0,22.0,30.02,WNW,290,5.0,11.0,79,0.00,,,0.00,,2013-02-12 03:02:00,
2013-02-11 21:11:00,28.0,22.0,30.02,WNW,290,5.0,11.0,79,0.00,,,0.00,,2013-02-12 03:11:00,
2013-02-11 21:21:00,28.0,23.0,30.02,NW,306,5.0,12.0,80,0.00,,,0.00,,2013-02-12 03:21:00,
2013-02-11 21:32:00,28.0,23.0,30.02,NW,313,4.0,11.0,81,0.00,,,0.00,,2013-02-12 03:32:00,
2013-02-11 21:42:00,28.0,23.0,30.02,NW,313,4.0,11.0,81,0.00,,,0.00,,2013-02-12 03:42:00,
2013-02-11 21:51:00,28.0,23.0,30.03,WNW,287,4.0,10.0,81,0.00,,,0.00,,2013-02-12 03:51:00,
2013-02-11 22:01:00,28.0,23.0,30.03,WNW,286,3.0,9.0,81,0.00,,,0.00,,2013-02-12 04:01:00,
2013-02-11 22:11:00,28.0,23.0,30.03,WNW,286,3.0,9.0,81,0.00,,,0.00,,2013-02-12 04:11:00,
2013-02-11 22:21:00,28.0,23.0,30.03,West,281,4.0,9.0,81,0.00,,,0.00,,2013-02-12 04:21:00,
2013-02-11 22:31:00,28.0,23.0,30.03,WNW,288,4.0,10.0,81,0.00,,,0.00,,2013-02-12 04:31:00,
2013-02-11 22:41:00,28.0,23.0,30.03,WNW,288,4.0,10.0,81,0.00,,,0.00,,2013-02-12 04:41:00,
2013-02-11 22:51:00,28.0,23.0,30.04,WNW,300,5.0,13.0,82,0.00,,,0.00,,2013-02-12 04:51:00,
2013-02-11 23:01:00,27.0,22.0,30.04,West,276,6.0,14.0,81,0.00,,,0.00,,2013-02-12 05:01:00,
2013-02-11 23:11:00,27.0,22.0,30.04,West,276,6.0,14.0,81,0.00,,,0.00,,2013-02-12 05:11:00,
2013-02-11 23:21:00,27.0,22.0,30.05,West,272,4.0,13.0,82,0.00,,,0.00,,2013-02-12 05:21:00,
2013-02-11 23:31:00,27.0,22.0,30.06,WSW,254,3.0,11.0,82,0.00,,,0.00,,2013-02-12 05:31:00,
2013-02-11 23:42:00,27.0,22.0,30.06,WSW,254,3.0,11.0,82,0.00,,,0.00,,2013-02-12 05:42:00,
2013-02-11 23:52:00,27.0,22.0,30.06,West,265,4.0,12.0,82,0.00,,,0.00,,2013-02-12 05:52:00,